User: anonymous   Login
Location: Caltech
(34.1382°N, 118.1253°W)
Time: 06:37:54
(UTC-07:00)
Language:

Cosmos 1484 Rocket - Orbit

View from above orbital plane
View from above orbital plane
View from above satellite
View from above satellite

Ground track
Ground track

The orbit data is extracted from the following two-line orbital elements,

1 14208U 83075B   15184.67709599  .00001289  00000-0  83741-4 0  9996
2 14208 097.3836 212.5945 0042446 074.3358 286.2549 15.09020647739695
Epoch (UTC): 03 July 2015 16:15:01
Eccentricity: 0.0042446
inclination: 97.3836°
perigee height: 510 km
apogee height: 568 km
right ascension of ascending node: 212.5945°
argument of perigee: 74.3358°
revolutions per day: 15.09020647
mean anomaly at epoch: 286.2549°
orbit number at epoch: 73969

The dashed part of the orbit path shows where the satellite is in the earth's shadow,  

DLR